Location: Domont
(49.0278°N, 2.3264°E)
Time: 10:27:49
(UTC+00:00)

NOAA 18 - Pass Details

Date: 02 July 2022
Orbit: 839 x 860 km, 98.9° (Epoch: 10 August)

Event Time Altitude Azimuth Distance (km) Brightness Sun altitude
Exits shadow 22:26:28 - 208° (SSW) 2,542 7.3 -15.3°
Reaches altitude 10° 22:26:40 10° 209° (SSW) 2,478 7.3 -15.3°
Maximum altitude 22:31:19 27° 267° (W) 1,576 6.8 -15.6°
Drops below altitude 10° 22:36:00 10° 324° (NW) 2,504 8.9 -15.9°
Sets 22:38:46 0° 337° (NNW) 3,448 10.2 -16.0°
